QPF
0.02 0.02 0.02 0.01 0.00 0.00 0.00 0.00 0.00 0.00 0.00 0.00 0.01 0.01 0.01 0.01 0.02 0.02 0.01 0.01 0.01 0.01 0.00 0.00 0.00 0.00 0.00 0.00 0.00 0.00 0.00 0.00 0.00 0.00 0.01 0.01 0.01 0.00 0.01 0.01 0.01 0.01 0.01
0.02 0.02 0.02 0.01 0.01 0.00 0.00 0.00 0.00 0.00 0.00 0.00 0.01 0.01 0.01 0.01 0.01 0.02 0.01 0.01 0.01 0.01 0.01 0.00 0.00 0.00 0.00 0.00 0.00 0.00 0.00 0.00 0.00 0.00 0.00 0.00 0.01 0.01 0.01 0.01 0.01 0.00 0.00
0.01 0.01 0.01 0.01 0.01 0.01 0.00 0.00 0.00 0.00 0.00 0.00 0.01 0.01 0.02 0.02 0.02 0.02 0.01 0.01 0.01 0.01 0.01 0.01 0.00 0.00 0.00 0.00 0.00 0.00 0.00 0.00 0.00 0.00 0.00 0.00 0.00 0.00 0.00 0.00 0.00 0.00 0.00
0.01 0.01 0.01 0.01 0.01 0.01 0.01 0.00 0.00 0.00 0.00 0.00 0.00 0.01 0.02 0.02 0.02 0.02 0.02 0.01 0.01 0.01 0.00 0.00 0.00 0.00 0.00 0.00 0.00 0.00 0.00 0.00 0.00 0.00 0.00 0.00 0.00 0.00 0.00 0.00 0.00 0.00 0.00
0.02 0.01 0.01 0.01 0.02 0.02 0.01 0.00 0.00 0.00 0.00 0.01 0.02 0.02 0.02 0.02 0.01 0.01 0.02 0.02 0.02 0.01 0.00 0.00 0.00 0.00 0.00 0.00 0.00 0.00 0.00 0.00 0.00 0.00 0.00 0.00 0.00 0.00 0.00 0.00 0.00 0.00 0.00
0.03 0.02 0.01 0.01 0.01 0.02 0.02 0.01 0.01 0.01 0.01 0.01 0.02 0.02 0.02 0.02 0.01 0.01 0.00 0.00 0.01 0.01 0.01 0.00 0.00 0.00 0.00 0.00 0.00 0.00 0.00 0.00 0.00 0.00 0.00 0.00 0.00 0.00 0.00 0.00 0.00 0.00 0.00
0.04 0.02 0.02 0.01 0.01 0.02 0.02 0.02 0.01 0.01 0.01 0.00 0.00 0.01 0.01 0.01 0.01 0.01 0.00 0.00 0.00 0.00 0.00 0.00 0.00 0.00 0.00 0.01 0.01 0.00 0.00 0.00 0.00 0.00 0.00 0.00 0.00 0.00 0.00 0.00 0.00 0.00 0.00
0.04 0.03 0.02 0.01 0.01 0.02 0.02 0.02 0.01 0.01 0.00 0.00 0.00 0.01 0.01 0.01 0.01 0.00 0.00 0.00 0.00 0.00 0.00 0.00 0.00 0.00 0.00 0.01 0.01 0.01 0.01 0.01 0.00 0.00 0.00 0.00 0.00 0.00 0.00 0.00 0.00 0.00 0.00
0.03 0.04 0.03 0.02 0.01 0.01 0.02 0.02 0.01 0.01 0.00 0.00 0.00 0.00 0.00 0.00 0.01 0.01 0.01 0.01 0.00 0.00 0.00 0.00 0.00 0.01 0.01 0.02 0.01 0.01 0.00 0.00 0.00 0.00 0.00 0.00 0.00 0.00 0.00 0.00 0.00 0.00 0.00
0.01 0.02 0.03 0.03 0.02 0.01 0.02 0.02 0.01 0.00 0.00 0.00 0.00 0.00 0.00 0.00 0.00 0.00 0.00 0.01 0.01 0.01 0.01 0.01 0.01 0.01 0.01 0.01 0.01 0.00 0.00 0.00 0.00 0.00 0.00 0.00 0.00 0.00 0.00 0.00 0.00 0.00 0.00
0.02 0.02 0.03 0.04 0.04 0.03 0.02 0.02 0.01 0.00 0.00 0.00 0.00 0.00 0.00 0.00 0.00 0.00 0.00 0.01 0.01 0.00 0.01 0.01 0.01 0.01 0.01 0.01 0.01 0.01 0.00 0.00 0.00 0.00 0.00 0.00 0.00 0.00 0.00 0.00 0.00 0.00 0.00
0.02 0.02 0.02 0.02 0.04 0.05 0.05 0.04 0.03 0.02 0.01 0.00 0.00 0.00 0.00 0.00 0.00 0.00 0.01 0.02 0.01 0.01 0.01 0.01 0.00 0.00 0.00 0.00 0.00 0.00 0.00 0.00 0.00 0.00 0.00 0.00 0.00 0.00 0.00 0.00 0.00 0.00 0.00
0.02 0.01 0.02 0.02 0.02 0.03 0.05 0.05 0.04 0.03 0.02 0.01 0.00 0.00 0.00 0.00 0.00 0.00 0.01 0.02 0.02 0.01 0.01 0.00 0.00 0.00 0.00 0.00 0.00 0.00 0.00 0.00 0.00 0.00 0.00 0.00 0.00 0.00 0.00 0.00 0.00 0.00 0.00
0.02 0.02 0.01 0.01 0.01 0.01 0.01 0.02 0.02 0.02 0.03 0.03 0.01 0.01 0.00 0.00 0.00 0.01 0.01 0.01 0.02 0.02 0.02 0.01 0.01 0.01 0.01 0.01 0.01 0.00 0.00 0.00 0.00 0.00 0.00 0.00 0.00 0.00 0.00 0.00 0.00 0.00 0.00
0.02 0.02 0.02 0.01 0.01 0.01 0.01 0.01 0.01 0.02 0.03 0.03 0.01 0.01 0.01 0.01 0.00 0.00 0.00 0.01 0.01 0.02 0.02 0.01 0.02 0.02 0.01 0.01 0.01 0.00 0.00 0.00 0.00 0.00 0.00 0.00 0.00 0.00 0.00 0.00 0.00 0.00 0.00
0.02 0.02 0.01 0.01 0.01 0.01 0.02 0.02 0.03 0.03 0.02 0.01 0.01 0.01 0.01 0.00 0.00 0.00 0.00 0.00 0.00 0.01 0.02 0.03 0.03 0.02 0.01 0.01 0.00 0.00 0.00 0.00 0.00 0.01 0.01 0.01 0.01 0.00 0.00 0.00 0.00 0.00 0.00
0.02 0.02 0.01 0.01 0.01 0.02 0.02 0.03 0.04 0.03 0.01 0.01 0.01 0.01 0.01 0.01 0.00 0.00 0.00 0.00 0.00 0.00 0.01 0.02 0.01 0.00 0.00 0.00 0.00 0.00 0.00 0.00 0.00 0.00 0.00 0.01 0.01 0.00 0.00 0.00 0.00 0.00 0.00
0.02 0.02 0.02 0.01 0.01 0.02 0.02 0.02 0.02 0.01 0.01 0.01 0.01 0.02 0.01 0.01 0.01 0.00 0.01 0.01 0.01 0.01 0.01 0.01 0.01 0.00 0.00 0.00 0.00 0.00 0.00 0.00 0.00 0.00 0.00 0.00 0.00 0.00 0.00 0.00 0.00 0.00 0.00
0.02 0.02 0.02 0.01 0.01 0.01 0.02 0.02 0.02 0.01 0.01 0.01 0.01 0.01 0.01 0.00 0.00 0.01 0.01 0.01 0.01 0.01 0.00 0.00 0.01 0.01 0.01 0.01 0.01 0.01 0.01 0.01 0.00 0.00 0.00 0.00 0.00 0.00 0.00 0.00 0.00 0.01 0.01
0.02 0.02 0.02 0.02 0.02 0.02 0.01 0.01 0.01 0.01 0.01 0.01 0.01 0.01 0.01 0.00 0.00 0.01 0.00 0.00 0.00 0.00 0.00 0.00 0.00 0.01 0.01 0.01 0.01 0.01 0.00 0.00 0.00 0.00 0.00 0.00 0.00 0.00 0.00 0.00 0.01 0.01 0.01
0.02 0.02 0.01 0.01 0.01 0.01 0.01 0.01 0.01 0.01 0.01 0.01 0.01 0.01 0.01 0.01 0.01 0.00 0.00 0.00 0.00 0.00 0.00 0.00 0.01 0.01 0.01 0.01 0.00 0.00 0.00 0.00 0.00 0.00 0.00 0.00 0.00 0.00 0.00 0.01 0.01 0.01 0.01
0.02 0.01 0.01 0.01 0.01 0.01 0.01 0.01 0.01 0.01 0.01 0.01 0.01 0.01 0.01 0.01 0.01 0.00 0.00 0.00 0.00 0.00 0.00 0.01 0.01 0.01 0.01 0.01 0.01 0.01 0.01 0.01 0.00 0.00 0.00 0.01 0.01 0.01 0.01 0.01 0.01 0.01 0.01
0.02 0.02 0.01 0.01 0.01 0.01 0.01 0.01 0.01 0.02 0.02 0.02 0.01 0.01 0.01 0.01 0.01 0.00 0.00 0.00 0.00 0.00 0.00 0.00 0.00 0.00 0.00 0.00 0.00 0.01 0.01 0.01 0.01 0.01 0.01 0.01 0.01 0.01 0.01 0.01 0.01 0.01 0.01
0.01 0.01 0.01 0.02 0.01 0.01 0.01 0.01 0.01 0.01 0.01 0.01 0.01 0.00 0.00 0.00 0.00 0.00 0.00 0.00 0.00 0.00 0.00 0.00 0.00 0.00 0.00 0.00 0.01 0.01 0.01 0.01 0.01 0.01 0.02 0.02 0.02 0.01 0.01 0.01 0.01 0.01 0.01
0.01 0.01 0.02 0.02 0.01 0.01 0.01 0.01 0.01 0.01 0.01 0.00 0.00 0.00 0.00 0.00 0.00 0.00 0.00 0.00 0.00 0.00 0.00 0.00 0.00 0.00 0.00 0.00 0.01 0.01 0.01 0.02 0.02 0.02 0.02 0.02 0.02 0.02 0.01 0.01 0.01 0.01 0.01
0.01 0.01 0.01 0.01 0.01 0.01 0.01 0.01 0.01 0.01 0.01 0.01 0.01 0.01 0.01 0.01 0.01 0.01 0.01 0.01 0.01 0.00 0.00 0.00 0.00 0.00 0.00 0.00 0.00 0.01 0.01 0.01 0.02 0.02 0.02 0.02 0.02 0.02 0.01 0.01 0.01 0.01 0.01
MSLP
1023.94 1024.35 1024.81 1025.27 1025.69 1026.02 1026.28 1026.45 1026.55 1026.62 1026.68 1026.74 1026.83 1026.93 1027.05 1027.19 1027.32 1027.45 1027.57 1027.70 1027.82 1027.95 1028.08 1028.24 1028.40 1028.58 1028.76 1028.96 1029.16 1029.36 1029.55 1029.72 1029.86 1029.94 1029.95 1029.86 1029.69 1029.43 1029.10 1028.72 1028.32 1027.94 1027.59
1024.16 1024.57 1025.02 1025.47 1025.89 1026.24 1026.51 1026.71 1026.84 1026.94 1027.02 1027.11 1027.22 1027.36 1027.52 1027.70 1027.89 1028.09 1028.28 1028.45 1028.62 1028.77 1028.90 1029.03 1029.15 1029.26 1029.38 1029.52 1029.67 1029.84 1030.02 1030.21 1030.38 1030.50 1030.56 1030.53 1030.40 1030.17 1029.85 1029.47 1029.06 1028.65 1028.27
1024.35 1024.76 1025.21 1025.66 1026.08 1026.44 1026.73 1026.94 1027.11 1027.23 1027.34 1027.45 1027.58 1027.74 1027.93 1028.15 1028.39 1028.63 1028.87 1029.10 1029.30 1029.47 1029.62 1029.73 1029.82 1029.90 1029.98 1030.07 1030.19 1030.34 1030.52 1030.71 1030.91 1031.07 1031.17 1031.18 1031.09 1030.90 1030.61 1030.24 1029.82 1029.39 1028.98
1024.47 1024.89 1025.35 1025.80 1026.22 1026.59 1026.89 1027.13 1027.32 1027.47 1027.61 1027.75 1027.90 1028.08 1028.30 1028.54 1028.80 1029.07 1029.35 1029.61 1029.84 1030.04 1030.20 1030.32 1030.40 1030.47 1030.53 1030.60 1030.69 1030.83 1031.01 1031.21 1031.42 1031.60 1031.74 1031.79 1031.74 1031.58 1031.31 1030.96 1030.56 1030.12 1029.69
1024.47 1024.93 1025.39 1025.85 1026.28 1026.66 1026.98 1027.25 1027.47 1027.65 1027.82 1027.99 1028.17 1028.36 1028.59 1028.84 1029.12 1029.41 1029.70 1029.98 1030.24 1030.46 1030.63 1030.77 1030.86 1030.93 1030.98 1031.05 1031.14 1031.28 1031.45 1031.65 1031.87 1032.07 1032.22 1032.30 1032.28 1032.15 1031.92 1031.60 1031.21 1030.79 1030.36
1024.34 1024.83 1025.32 1025.79 1026.23 1026.62 1026.97 1027.26 1027.52 1027.74 1027.95 1028.14 1028.34 1028.56 1028.79 1029.05 1029.32 1029.61 1029.90 1030.19 1030.46 1030.69 1030.89 1031.05 1031.16 1031.25 1031.32 1031.40 1031.50 1031.63 1031.80 1032.01 1032.22 1032.43 1032.60 1032.69 1032.70 1032.60 1032.40 1032.11 1031.76 1031.36 1030.95
1024.07 1024.60 1025.11 1025.60 1026.05 1026.46 1026.83 1027.16 1027.45 1027.71 1027.96 1028.19 1028.41 1028.64 1028.87 1029.12 1029.39 1029.66 1029.94 1030.23 1030.50 1030.75 1030.97 1031.15 1031.30 1031.41 1031.52 1031.62 1031.74 1031.88 1032.06 1032.26 1032.48 1032.68 1032.85 1032.95 1032.98 1032.91 1032.74 1032.50 1032.18 1031.82 1031.43
1023.68 1024.24 1024.77 1025.28 1025.74 1026.17 1026.56 1026.92 1027.25 1027.55 1027.83 1028.09 1028.34 1028.58 1028.81 1029.05 1029.30 1029.55 1029.82 1030.09 1030.36 1030.62 1030.86 1031.08 1031.27 1031.43 1031.58 1031.72 1031.86 1032.03 1032.22 1032.42 1032.63 1032.83 1033.00 1033.11 1033.14 1033.10 1032.97 1032.76 1032.49 1032.17 1031.82
1023.20 1023.78 1024.33 1024.84 1025.32 1025.76 1026.17 1026.55 1026.91 1027.25 1027.57 1027.86 1028.12 1028.37 1028.60 1028.82 1029.05 1029.28 1029.53 1029.80 1030.07 1030.35 1030.61 1030.87 1031.11 1031.32 1031.52 1031.71 1031.90 1032.10 1032.30 1032.51 1032.72 1032.92 1033.08 1033.20 1033.24 1033.21 1033.11 1032.94 1032.70 1032.42 1032.10
1022.65 1023.24 1023.80 1024.31 1024.79 1025.24 1025.66 1026.07 1026.46 1026.82 1027.16 1027.47 1027.75 1028.00 1028.22 1028.44 1028.65 1028.87 1029.11 1029.37 1029.65 1029.95 1030.26 1030.56 1030.86 1031.14 1031.40 1031.65 1031.88 1032.12 1032.35 1032.57 1032.79 1032.99 1033.15 1033.26 1033.31 1033.29 1033.21 1033.06 1032.85 1032.59 1032.30
1022.04 1022.63 1023.18 1023.69 1024.17 1024.62 1025.05 1025.47 1025.87 1026.26 1026.61 1026.93 1027.22 1027.47 1027.69 1027.90 1028.11 1028.32 1028.56 1028.84 1029.14 1029.48 1029.83 1030.19 1030.55 1030.90 1031.23 1031.54 1031.84 1032.11 1032.38 1032.63 1032.85 1033.05 1033.21 1033.32 1033.37 1033.36 1033.28 1033.14 1032.94 1032.70 1032.41
1021.37 1021.94 1022.48 1022.97 1023.44 1023.90 1024.33 1024.76 1025.17 1025.56 1025.93 1026.25 1026.54 1026.79 1027.02 1027.22 1027.43 1027.66 1027.92 1028.22 1028.56 1028.94 1029.35 1029.78 1030.21 1030.63 1031.04 1031.42 1031.77 1032.10 1032.40 1032.67 1032.91 1033.12 1033.28 1033.39 1033.44 1033.42 1033.33 1033.19 1032.98 1032.73 1032.44
1020.62 1021.17 1021.68 1022.16 1022.62 1023.07 1023.50 1023.93 1024.35 1024.74 1025.10 1025.43 1025.72 1025.97 1026.20 1026.41 1026.64 1026.89 1027.18 1027.52 1027.92 1028.36 1028.84 1029.34 1029.84 1030.34 1030.81 1031.25 1031.66 1032.04 1032.38 1032.68 1032.94 1033.16 1033.33 1033.44 1033.48 1033.45 1033.36 1033.20 1032.98 1032.71 1032.40
1019.80 1020.30 1020.78 1021.24 1021.70 1022.13 1022.57 1023.00 1023.41 1023.80 1024.15 1024.48 1024.76 1025.01 1025.25 1025.48 1025.74 1026.02 1026.36 1026.75 1027.21 1027.72 1028.27 1028.84 1029.42 1029.98 1030.52 1031.03 1031.49 1031.91 1032.29 1032.63 1032.91 1033.15 1033.32 1033.43 1033.47 1033.44 1033.33 1033.16 1032.92 1032.62 1032.28
1018.91 1019.36 1019.81 1020.25 1020.69 1021.12 1021.55 1021.97 1022.37 1022.75 1023.10 1023.41 1023.70 1023.95 1024.20 1024.46 1024.74 1025.07 1025.46 1025.92 1026.44 1027.02 1027.64 1028.28 1028.92 1029.55 1030.15 1030.71 1031.22 1031.68 1032.10 1032.46 1032.78 1033.03 1033.22 1033.35 1033.39 1033.36 1033.24 1033.05 1032.79 1032.47 1032.10
1017.99 1018.40 1018.80 1019.22 1019.64 1020.06 1020.49 1020.90 1021.29 1021.66 1021.99 1022.30 1022.57 1022.83 1023.10 1023.38 1023.70 1024.08 1024.52 1025.03 1025.62 1026.26 1026.94 1027.64 1028.33 1029.01 1029.66 1030.27 1030.82 1031.32 1031.77 1032.17 1032.52 1032.80 1033.02 1033.16 1033.22 1033.19 1033.08 1032.89 1032.62 1032.28 1031.88
1017.11 1017.46 1017.83 1018.22 1018.62 1019.04 1019.45 1019.85 1020.23 1020.58 1020.90 1021.19 1021.46 1021.72 1022.00 1022.30 1022.66 1023.08 1023.57 1024.13 1024.77 1025.46 1026.19 1026.93 1027.67 1028.39 1029.07 1029.71 1030.30 1030.84 1031.32 1031.75 1032.13 1032.45 1032.70 1032.87 1032.96 1032.95 1032.85 1032.67 1032.39 1032.05 1031.64
1016.33 1016.63 1016.96 1017.32 1017.71 1018.11 1018.50 1018.89 1019.26 1019.59 1019.90 1020.17 1020.44 1020.70 1020.98 1021.31 1021.69 1022.14 1022.66 1023.27 1023.94 1024.66 1025.42 1026.19 1026.95 1027.70 1028.40 1029.06 1029.68 1030.25 1030.77 1031.24 1031.65 1032.01 1032.29 1032.50 1032.62 1032.64 1032.57 1032.40 1032.13 1031.79 1031.37
1015.70 1015.95 1016.25 1016.59 1016.96 1017.34 1017.73 1018.10 1018.44 1018.76 1019.05 1019.32 1019.57 1019.84 1020.12 1020.46 1020.86 1021.32 1021.87 1022.49 1023.18 1023.91 1024.68 1025.46 1026.23 1026.98 1027.70 1028.38 1029.01 1029.61 1030.16 1030.66 1031.11 1031.50 1031.83 1032.07 1032.22 1032.28 1032.23 1032.08 1031.84 1031.50 1031.09
1015.24 1015.46 1015.74 1016.05 1016.41 1016.78 1017.15 1017.50 1017.83 1018.14 1018.41 1018.67 1018.92 1019.18 1019.47 1019.81 1020.21 1020.68 1021.23 1021.85 1022.53 1023.26 1024.01 1024.78 1025.54 1026.29 1027.01 1027.69 1028.34 1028.96 1029.53 1030.06 1030.55 1030.97 1031.33 1031.60 1031.79 1031.87 1031.85 1031.72 1031.50 1031.18 1030.78
1014.96 1015.15 1015.41 1015.71 1016.05 1016.41 1016.77 1017.11 1017.43 1017.72 1017.99 1018.24 1018.48 1018.74 1019.03 1019.37 1019.77 1020.23 1020.77 1021.37 1022.03 1022.73 1023.46 1024.20 1024.93 1025.66 1026.37 1027.05 1027.71 1028.34 1028.93 1029.49 1029.99 1030.44 1030.82 1031.11 1031.32 1031.42 1031.42 1031.31 1031.10 1030.80 1030.42
1014.79 1014.98 1015.22 1015.52 1015.85 1016.20 1016.55 1016.89 1017.20 1017.48 1017.74 1017.99 1018.24 1018.50 1018.79 1019.13 1019.52 1019.96 1020.48 1021.05 1021.67 1022.33 1023.01 1023.71 1024.42 1025.12 1025.81 1026.49 1027.14 1027.77 1028.38 1028.94 1029.46 1029.92 1030.31 1030.61 1030.82 1030.93 1030.93 1030.84 1030.64 1030.35 1029.98
1014.70 1014.88 1015.12 1015.42 1015.74 1016.09 1016.43 1016.76 1017.07 1017.35 1017.62 1017.87 1018.13 1018.40 1018.69 1019.02 1019.40 1019.84 1020.32 1020.85 1021.43 1022.04 1022.68 1023.33 1024.00 1024.67 1025.33 1025.99 1026.64 1027.27 1027.88 1028.44 1028.96 1029.42 1029.81 1030.10 1030.30 1030.40 1030.40 1030.30 1030.11 1029.83 1029.48
1014.61 1014.79 1015.03 1015.33 1015.65 1015.99 1016.33 1016.65 1016.96 1017.26 1017.53 1017.80 1018.07 1018.35 1018.65 1018.99 1019.37 1019.78 1020.24 1020.74 1021.27 1021.83 1022.42 1023.03 1023.65 1024.28 1024.92 1025.56 1026.20 1026.82 1027.42 1027.99 1028.50 1028.94 1029.31 1029.59 1029.77 1029.85 1029.83 1029.72 1029.53 1029.26 1028.92
1014.49 1014.67 1014.91 1015.20 1015.52 1015.85 1016.18 1016.50 1016.82 1017.12 1017.41 1017.69 1017.98 1018.28 1018.61 1018.96 1019.33 1019.74 1020.18 1020.65 1021.14 1021.66 1022.21 1022.77 1023.35 1023.95 1024.57 1025.19 1025.81 1026.42 1027.01 1027.56 1028.06 1028.49 1028.83 1029.08 1029.23 1029.29 1029.25 1029.13 1028.92 1028.66 1028.34
1014.35 1014.52 1014.74 1015.02 1015.32 1015.63 1015.95 1016.27 1016.59 1016.90 1017.20 1017.51 1017.83 1018.16 1018.50 1018.87 1019.26 1019.67 1020.09 1020.54 1021.01 1021.50 1022.01 1022.54 1023.09 1023.67 1024.26 1024.86 1025.47 1026.07 1026.65 1027.18 1027.66 1028.06 1028.38 1028.60 1028.72 1028.74 1028.68 1028.53 1028.33 1028.06 1027.75
Thickness
5695 5694 5692 5690 5689 5688 5686 5685 5683 5682 5681 5679 5678 5677 5676 5674 5673 5672 5670 5669 5667 5666 5665 5664 5662 5660 5659 5657 5656 5653 5650 5648 5641 5638 5637 5638 5638 5638 5637 5637 5636 5636 5635
5694 5691 5689 5688 5686 5684 5683 5682 5681 5679 5678 5677 5675 5674 5672 5671 5669 5668 5666 5664 5663 5661 5660 5659 5657 5656 5653 5652 5650 5647 5645 5643 5639 5634 5632 5632 5632 5631 5630 5630 5629 5628 5627
5691 5689 5686 5684 5683 5682 5681 5680 5678 5676 5674 5673 5672 5670 5668 5667 5665 5663 5662 5660 5658 5656 5655 5654 5652 5651 5648 5646 5644 5642 5639 5637 5634 5630 5626 5624 5624 5624 5623 5622 5621 5620 5619
5689 5686 5684 5682 5681 5680 5678 5677 5675 5673 5671 5669 5668 5666 5664 5663 5661 5659 5657 5655 5653 5652 5651 5650 5648 5646 5644 5642 5640 5636 5633 5630 5627 5623 5620 5617 5616 5615 5614 5612 5611 5610 5609
5686 5683 5682 5680 5678 5676 5674 5673 5671 5669 5667 5665 5663 5662 5660 5658 5657 5655 5653 5651 5649 5647 5646 5645 5644 5642 5640 5638 5635 5631 5628 5624 5620 5617 5613 5610 5608 5606 5605 5603 5601 5600 5599
5684 5682 5679 5677 5675 5672 5671 5669 5667 5664 5662 5661 5659 5657 5655 5655 5653 5651 5649 5646 5644 5642 5640 5639 5638 5636 5635 5633 5631 5628 5624 5620 5615 5611 5607 5603 5601 5599 5597 5596 5592 5591 5589
5682 5679 5676 5674 5671 5669 5667 5665 5662 5660 5658 5656 5654 5653 5651 5650 5649 5647 5644 5641 5639 5637 5635 5633 5633 5631 5628 5626 5624 5621 5618 5615 5612 5607 5602 5599 5596 5594 5590 5588 5584 5580 5578
5679 5676 5673 5671 5668 5665 5663 5660 5658 5656 5653 5651 5649 5648 5646 5645 5644 5642 5639 5636 5633 5631 5629 5628 5626 5624 5622 5620 5617 5613 5610 5608 5605 5602 5599 5595 5592 5588 5584 5580 5576 5572 5569
5676 5674 5671 5669 5665 5662 5658 5656 5654 5652 5649 5647 5645 5643 5641 5640 5639 5637 5634 5629 5626 5624 5623 5622 5620 5618 5617 5614 5610 5606 5603 5601 5598 5595 5592 5589 5585 5581 5576 5571 5566 5562 5558
5675 5673 5670 5667 5663 5659 5656 5653 5651 5649 5646 5644 5641 5639 5637 5636 5634 5632 5629 5625 5620 5618 5617 5616 5615 5613 5611 5607 5603 5600 5595 5593 5590 5587 5583 5579 5576 5571 5567 5562 5557 5551 5546
5674 5670 5667 5664 5661 5657 5653 5650 5647 5644 5641 5639 5636 5634 5632 5631 5630 5628 5625 5621 5618 5614 5612 5610 5609 5607 5604 5601 5597 5593 5590 5586 5582 5577 5573 5569 5566 5561 5557 5552 5547 5542 5536
5670 5666 5663 5660 5658 5654 5650 5646 5643 5639 5636 5633 5630 5628 5627 5626 5625 5623 5621 5618 5615 5611 5608 5606 5604 5601 5598 5594 5590 5587 5583 5578 5573 5568 5563 5559 5555 5551 5547 5543 5538 5533 5528
5666 5662 5659 5655 5653 5650 5647 5642 5639 5635 5632 5628 5625 5623 5621 5620 5619 5618 5616 5613 5610 5606 5604 5601 5598 5594 5590 5586 5583 5579 5574 5568 5563 5558 5554 5550 5546 5542 5538 5533 5529 5524 5519
5661 5658 5654 5651 5647 5645 5643 5640 5636 5632 5629 5625 5622 5620 5617 5615 5613 5611 5609 5607 5604 5600 5596 5593 5590 5585 5581 5577 5573 5569 5564 5559 5555 5550 5545 5541 5537 5532 5527 5523 5518 5513 5508
5656 5653 5650 5647 5643 5640 5638 5636 5634 5632 5630 5626 5623 5620 5615 5611 5611 5609 5605 5601 5598 5594 5589 5584 5580 5575 5571 5566 5562 5559 5554 5550 5545 5541 5536 5531 5527 5522 5517 5512 5506 5501 5496
5651 5648 5645 5642 5639 5635 5632 5628 5627 5627 5625 5624 5621 5617 5614 5612 5609 5605 5601 5598 5594 5589 5582 5576 5571 5567 5563 5558 5554 5550 5546 5541 5537 5532 5527 5522 5517 5512 5507 5501 5495 5490 5485
5649 5645 5641 5638 5635 5631 5628 5625 5621 5619 5618 5617 5615 5612 5610 5607 5603 5599 5595 5591 5587 5581 5575 5570 5565 5561 5556 5552 5547 5542 5538 5533 5528 5523 5517 5512 5507 5502 5496 5491 5485 5479 5475
5645 5642 5638 5635 5632 5628 5625 5622 5619 5615 5611 5608 5608 5606 5604 5601 5597 5593 5589 5583 5577 5573 5568 5564 5559 5555 5550 5545 5541 5535 5530 5525 5519 5514 5508 5503 5497 5492 5486 5480 5475 5469 5465
5640 5637 5634 5630 5627 5624 5621 5617 5613 5610 5606 5603 5600 5598 5597 5593 5590 5586 5582 5576 5571 5566 5562 5558 5554 5549 5544 5539 5534 5529 5523 5518 5512 5506 5501 5495 5489 5483 5477 5471 5466 5461 5455
5634 5633 5630 5625 5621 5618 5614 5611 5607 5604 5600 5597 5594 5592 5589 5585 5581 5577 5574 5570 5566 5561 5557 5552 5548 5543 5538 5533 5528 5521 5515 5510 5504 5498 5493 5487 5481 5475 5469 5463 5457 5452 5446
5628 5626 5625 5620 5616 5613 5610 5606 5603 5599 5596 5592 5590 5587 5585 5580 5577 5573 5568 5564 5560 5556 5552 5547 5542 5537 5532 5527 5521 5515 5509 5503 5497 5491 5485 5479 5473 5467 5461 5455 5449 5444 5439
5623 5620 5618 5614 5611 5608 5605 5601 5597 5594 5590 5586 5583 5580 5578 5574 5570 5566 5562 5559 5555 5551 5546 5541 5536 5531 5526 5521 5515 5509 5503 5497 5491 5485 5479 5473 5466 5460 5454 5448 5442 5436 5431
5616 5614 5610 5607 5604 5602 5598 5594 5591 5587 5584 5581 5577 5573 5570 5567 5563 5560 5556 5553 5548 5544 5539 5535 5530 5525 5520 5514 5509 5503 5497 5491 5485 5479 5472 5466 5459 5453 5447 5440 5435 5429 5424
5610 5607 5604 5600 5597 5594 5591 5588 5584 5581 5578 5575 5571 5567 5564 5560 5557 5553 5550 5546 5541 5537 5532 5528 5523 5518 5513 5507 5502 5496 5490 5485 5478 5472 5466 5459 5453 5446 5440 5434 5428 5422 5417
5603 5600 5597 5594 5591 5588 5585 5581 5578 5574 5571 5568 5565 5561 5557 5553 5550 5546 5542 5538 5534 5530 5525 5521 5516 5511 5506 5500 5495 5489 5484 5478 5472 5465 5459 5452 5446 5439 5433 5427 5421 5415 5410
5595 5593 5590 5587 5584 5581 5578 5574 5571 5567 5564 5561 5558 5554 5550 5547 5543 5539 5535 5531 5527 5522 5518 5514 5509 5504 5499 5494 5488 5483 5477 5471 5465 5458 5452 5445 5439 5432 5426 5421 5415 5409 5404